PGT2205 LTBJ-LTFJ

Flight info

Callsign PGT2205
Flight time 0h 41m
Altitude 32000
Route BERGO UG80 DUGLA UY371 VUTZO
Aircraft A320/M-SDE3FGHIRWY/LB1

Departure

Time 2026-05-03 21:14
Airport Adnan Menderes International Airport (LTBJ)

Arrival

Time 2026-05-03 21:55
Airport Istanbul Sabiha Gökçen International Airport (LTFJ)
Time Latitude Longitude Altitude Speed Heading
2026-05-03 20:31 38.29578 27.15156 411 ft 0 kts 77°
2026-05-03 21:05 38.29577 27.15154 384 ft 2 kts 77°
2026-05-03 21:05 38.29572 27.15124 411 ft 4 kts 77°
2026-05-03 21:06 38.29567 27.15099 411 ft 4 kts 85°
2026-05-03 21:06 38.29570 27.15071 409 ft 4 kts 132°
2026-05-03 21:06 38.29587 27.15057 407 ft 1 kts 166°
2026-05-03 21:08 38.29563 27.15064 404 ft 7 kts 166°
2026-05-03 21:08 38.29501 27.15084 411 ft 11 kts 165°
2026-05-03 21:09 38.29413 27.15110 411 ft 15 kts 167°
2026-05-03 21:09 38.29346 27.15147 411 ft 8 kts 107°
2026-05-03 21:09 38.29352 27.15233 409 ft 11 kts 77°
2026-05-03 21:09 38.29374 27.15323 415 ft 9 kts 74°
2026-05-03 21:10 38.29388 27.15397 418 ft 9 kts 81°
2026-05-03 21:10 38.29342 27.15450 416 ft 14 kts 169°
2026-05-03 21:10 38.29189 27.15496 417 ft 27 kts 167°
2026-05-03 21:10 38.29014 27.15549 412 ft 25 kts 166°
2026-05-03 21:11 38.28838 27.15602 414 ft 28 kts 167°
2026-05-03 21:11 38.28638 27.15663 418 ft 31 kts 167°
2026-05-03 21:11 38.28428 27.15725 417 ft 32 kts 167°
2026-05-03 21:11 38.28212 27.15791 419 ft 30 kts 164°
2026-05-03 21:12 38.28142 27.15861 418 ft 14 kts 95°
2026-05-03 21:12 38.28149 27.15909 419 ft 0 kts 76°
2026-05-03 21:12 38.28151 27.15922 419 ft 7 kts 75°
2026-05-03 21:12 38.28189 27.16009 419 ft 12 kts 15°
2026-05-03 21:13 38.28260 27.15993 417 ft 11 kts 346°
2026-05-03 21:13 38.28496 27.15919 415 ft 69 kts 346°
2026-05-03 21:13 38.29155 27.15721 413 ft 124 kts 346°
2026-05-03 21:13 38.29985 27.15468 791 ft 138 kts 347°
2026-05-03 21:14 38.30933 27.15189 1433 ft 141 kts 349°
2026-05-03 21:14 38.31890 27.14891 2154 ft 143 kts 348°
2026-05-03 21:14 38.32890 27.14553 2716 ft 156 kts 350°
2026-05-03 21:14 38.34021 27.14220 3012 ft 179 kts 351°
2026-05-03 21:15 38.35331 27.13846 3442 ft 205 kts 351°
2026-05-03 21:15 38.36789 27.13425 4045 ft 223 kts 351°
2026-05-03 21:15 38.38328 27.12967 4963 ft 229 kts 352°
2026-05-03 21:15 38.39888 27.12496 5876 ft 234 kts 351°
2026-05-03 21:16 38.41494 27.12011 6804 ft 239 kts 351°
2026-05-03 21:16 38.43130 27.11517 7667 ft 243 kts 350°
2026-05-03 21:16 38.44790 27.11019 8582 ft 247 kts 349°
2026-05-03 21:16 38.46479 27.10509 9483 ft 251 kts 349°
2026-05-03 21:17 38.48191 27.09989 10306 ft 257 kts 349°
2026-05-03 21:17 38.49379 27.09630 10537 ft 272 kts 349°
2026-05-03 21:17 38.51964 27.08851 10923 ft 301 kts 349°
2026-05-03 21:17 38.54030 27.08226 11607 ft 308 kts 349°
2026-05-03 21:18 38.56127 27.07587 12409 ft 312 kts 349°
2026-05-03 21:18 38.58250 27.06941 13213 ft 316 kts 349°
2026-05-03 21:18 38.60448 27.06382 13973 ft 319 kts 355°
2026-05-03 21:18 38.62646 27.06388 14616 ft 322 kts
2026-05-03 21:19 38.64883 27.06800 15243 ft 327 kts
2026-05-03 21:19 38.67154 27.07226 15916 ft 332 kts
2026-05-03 21:19 38.69449 27.07652 16531 ft 337 kts
2026-05-03 21:19 38.71791 27.08084 17132 ft 342 kts
2026-05-03 21:20 38.74171 27.08519 17738 ft 348 kts
2026-05-03 21:20 38.76582 27.08960 18352 ft 353 kts
2026-05-03 21:20 38.79027 27.09410 18928 ft 356 kts
2026-05-03 21:20 38.81489 27.09865 19502 ft 359 kts
2026-05-03 21:21 38.83986 27.10326 20055 ft 363 kts
2026-05-03 21:21 38.86495 27.10788 20595 ft 367 kts
2026-05-03 21:21 38.89040 27.11258 21140 ft 370 kts 10°
2026-05-03 21:21 38.91598 27.11733 21647 ft 374 kts 10°
2026-05-03 21:22 38.94191 27.12214 22173 ft 378 kts 10°
2026-05-03 21:22 38.96808 27.12700 22695 ft 382 kts 10°
2026-05-03 21:22 38.99449 27.13191 23228 ft 385 kts 10°
2026-05-03 21:22 39.02107 27.13685 23723 ft 389 kts 10°
2026-05-03 21:23 39.04797 27.14178 24143 ft 392 kts 10°
2026-05-03 21:23 39.07509 27.14668 24582 ft 395 kts
2026-05-03 21:23 39.10249 27.15162 24993 ft 398 kts
2026-05-03 21:23 39.12972 27.15656 25490 ft 399 kts
2026-05-03 21:24 39.15721 27.16157 25996 ft 399 kts
2026-05-03 21:24 39.18488 27.16665 26305 ft 404 kts 10°
2026-05-03 21:24 39.21288 27.17179 26665 ft 408 kts
2026-05-03 21:24 39.24104 27.17698 27094 ft 410 kts
2026-05-03 21:25 39.26937 27.18219 27473 ft 414 kts 10°
2026-05-03 21:25 39.29802 27.18744 27824 ft 417 kts 12°
2026-05-03 21:25 39.32690 27.19276 28235 ft 419 kts 12°
2026-05-03 21:25 39.35579 27.19810 28575 ft 423 kts 11°
2026-05-03 21:26 39.38508 27.20349 28914 ft 426 kts
2026-05-03 21:26 39.41451 27.20890 29310 ft 428 kts 11°
2026-05-03 21:26 39.44399 27.21434 29619 ft 432 kts 11°
2026-05-03 21:26 39.47392 27.21990 29952 ft 434 kts 11°
2026-05-03 21:27 39.50361 27.22681 30261 ft 433 kts 17°
2026-05-03 21:27 39.53251 27.23812 30455 ft 436 kts 19°
2026-05-03 21:27 39.56160 27.24997 30690 ft 439 kts 20°
2026-05-03 21:27 39.59074 27.26182 30958 ft 441 kts 20°
2026-05-03 21:28 39.62021 27.27381 31183 ft 444 kts 19°
2026-05-03 21:28 39.64975 27.28579 31552 ft 444 kts 20°
2026-05-03 21:28 39.67924 27.29779 31900 ft 444 kts 19°
2026-05-03 21:28 39.70882 27.30985 32013 ft 444 kts 19°
2026-05-03 21:29 39.76667 27.33347 32034 ft 433 kts 20°
2026-05-03 21:29 39.82401 27.35703 32028 ft 431 kts 20°
2026-05-03 21:30 39.88120 27.38060 32018 ft 433 kts 20°
2026-05-03 21:30 39.90993 27.39246 31779 ft 432 kts 20°
2026-05-03 21:30 39.93863 27.40434 31521 ft 430 kts 20°
2026-05-03 21:31 39.96706 27.41609 31272 ft 428 kts 20°
2026-05-03 21:31 39.99539 27.42777 31025 ft 426 kts 20°
2026-05-03 21:31 40.02344 27.43931 30532 ft 422 kts 20°
2026-05-03 21:31 40.05140 27.45080 29950 ft 419 kts 21°
2026-05-03 21:32 40.07867 27.46199 29383 ft 415 kts 21°
2026-05-03 21:32 40.10605 27.47324 28849 ft 410 kts 20°
2026-05-03 21:32 40.13313 27.48443 28296 ft 405 kts 21°
2026-05-03 21:32 40.15981 27.49550 27771 ft 401 kts 20°
2026-05-03 21:33 40.18655 27.50661 27256 ft 396 kts 20°
2026-05-03 21:33 40.21270 27.51746 26770 ft 391 kts 20°
2026-05-03 21:33 40.23859 27.52823 26360 ft 390 kts 20°
2026-05-03 21:33 40.26434 27.53897 25940 ft 387 kts 20°
2026-05-03 21:34 40.28971 27.55009 25521 ft 383 kts 25°
2026-05-03 21:34 40.31320 27.56573 25109 ft 376 kts 35°
2026-05-03 21:34 40.33427 27.58552 24698 ft 372 kts 39°
2026-05-03 21:34 40.35469 27.60547 24289 ft 370 kts 38°
2026-05-03 21:35 40.37527 27.62557 23887 ft 366 kts 38°
2026-05-03 21:35 40.39564 27.64549 23460 ft 363 kts 38°
2026-05-03 21:35 40.41575 27.66518 23052 ft 359 kts 38°
2026-05-03 21:35 40.43564 27.68469 22658 ft 355 kts 39°
2026-05-03 21:36 40.45301 27.70734 22377 ft 352 kts 55°
2026-05-03 21:36 40.46400 27.73571 22104 ft 349 kts 70°
2026-05-03 21:36 40.47162 27.76599 21841 ft 348 kts 71°
2026-05-03 21:36 40.47906 27.79617 21571 ft 347 kts 71°
2026-05-03 21:37 40.48640 27.82628 21300 ft 345 kts 71°
2026-05-03 21:37 40.49366 27.85618 21043 ft 343 kts 71°
2026-05-03 21:37 40.50090 27.88602 20787 ft 343 kts 71°
2026-05-03 21:37 40.50816 27.91594 20526 ft 339 kts 71°
2026-05-03 21:38 40.51525 27.94510 20164 ft 334 kts 71°
2026-05-03 21:38 40.52231 27.97409 19745 ft 332 kts 71°
2026-05-03 21:38 40.52929 28.00282 19328 ft 330 kts 71°
2026-05-03 21:38 40.53623 28.03134 18908 ft 328 kts 70°
2026-05-03 21:39 40.54316 28.05983 18485 ft 326 kts 70°
2026-05-03 21:39 40.55007 28.08823 18041 ft 324 kts 70°
2026-05-03 21:39 40.55688 28.11635 17612 ft 321 kts 70°
2026-05-03 21:39 40.56361 28.14416 17210 ft 318 kts 70°
2026-05-03 21:40 40.57028 28.17172 16811 ft 315 kts 70°
2026-05-03 21:40 40.57688 28.19897 16411 ft 312 kts 69°
2026-05-03 21:40 40.58346 28.22613 16023 ft 310 kts 69°
2026-05-03 21:40 40.58995 28.25302 15634 ft 308 kts 69°
2026-05-03 21:41 40.59637 28.27982 15247 ft 306 kts 70°
2026-05-03 21:41 40.60275 28.30648 14863 ft 305 kts 70°
2026-05-03 21:41 40.60914 28.33312 14477 ft 304 kts 70°
2026-05-03 21:41 40.61549 28.35957 14098 ft 303 kts 70°
2026-05-03 21:42 40.62181 28.38596 13708 ft 302 kts 70°
2026-05-03 21:42 40.62805 28.41201 13297 ft 301 kts 70°
2026-05-03 21:42 40.63430 28.43813 12902 ft 298 kts 70°
2026-05-03 21:42 40.64048 28.46406 12510 ft 296 kts 69°
2026-05-03 21:43 40.64660 28.48974 12127 ft 294 kts 70°
2026-05-03 21:43 40.65271 28.51530 11763 ft 291 kts 70°
2026-05-03 21:43 40.65872 28.54052 11390 ft 288 kts 69°
2026-05-03 21:43 40.66471 28.56578 10975 ft 286 kts 70°
2026-05-03 21:44 40.67060 28.59063 10597 ft 284 kts 69°
2026-05-03 21:44 40.67642 28.61531 10289 ft 280 kts 70°
2026-05-03 21:44 40.68205 28.63919 10153 ft 269 kts 69°
2026-05-03 21:44 40.68754 28.66250 9944 ft 263 kts 69°
2026-05-03 21:45 40.69293 28.68541 9847 ft 263 kts 69°
2026-05-03 21:45 40.69840 28.70853 9368 ft 265 kts 69°
2026-05-03 21:45 40.70384 28.73164 8884 ft 266 kts 69°
2026-05-03 21:45 40.70927 28.75467 8291 ft 259 kts 69°
2026-05-03 21:46 40.71452 28.77704 7724 ft 253 kts 69°
2026-05-03 21:46 40.71967 28.79891 7176 ft 246 kts 69°
2026-05-03 21:46 40.72458 28.81978 6875 ft 230 kts 69°
2026-05-03 21:46 40.72916 28.83935 6571 ft 217 kts 68°
2026-05-03 21:47 40.73350 28.85792 6273 ft 211 kts 68°
2026-05-03 21:47 40.73781 28.87622 5960 ft 208 kts 68°
2026-05-03 21:47 40.74216 28.89473 5635 ft 206 kts 68°
2026-05-03 21:47 40.74635 28.91257 5314 ft 204 kts 67°
2026-05-03 21:48 40.75051 28.93036 5019 ft 202 kts 67°
2026-05-03 21:48 40.75460 28.94790 4758 ft 198 kts 67°
2026-05-03 21:48 40.75860 28.96510 4508 ft 196 kts 67°
2026-05-03 21:48 40.76261 28.98232 4260 ft 196 kts 67°
2026-05-03 21:49 40.76663 28.99955 3993 ft 196 kts 67°
2026-05-03 21:49 40.77147 29.01600 3755 ft 189 kts 55°
2026-05-03 21:49 40.77642 29.02538 3680 ft 188 kts 47°
2026-05-03 21:49 40.78436 29.03863 3589 ft 180 kts 48°
2026-05-03 21:50 40.79187 29.05134 3490 ft 173 kts 49°
2026-05-03 21:50 40.79921 29.06376 3376 ft 170 kts 48°
2026-05-03 21:50 40.80651 29.07606 3088 ft 171 kts 48°
2026-05-03 21:50 40.81367 29.08817 3013 ft 166 kts 48°
2026-05-03 21:51 40.82002 29.10021 3008 ft 169 kts 53°
2026-05-03 21:51 40.82584 29.11378 3006 ft 172 kts 56°
2026-05-03 21:51 40.83132 29.12786 3012 ft 173 kts 59°
2026-05-03 21:51 40.83479 29.14335 3007 ft 179 kts 71°
2026-05-03 21:52 40.83674 29.15963 3013 ft 180 kts 73°
2026-05-03 21:52 40.83854 29.17607 2831 ft 183 kts 73°
2026-05-03 21:52 40.84057 29.19245 2533 ft 173 kts 66°
2026-05-03 21:52 40.84455 29.20603 2198 ft 147 kts 55°
2026-05-03 21:53 40.84937 29.21733 1894 ft 137 kts 50°
2026-05-03 21:53 40.85465 29.22752 1679 ft 135 kts 46°
2026-05-03 21:53 40.86005 29.23774 1441 ft 134 kts 49°
2026-05-03 21:53 40.86483 29.24816 1211 ft 134 kts 53°
2026-05-03 21:54 40.86918 29.25955 975 ft 138 kts 60°
2026-05-03 21:54 40.87285 29.27074 698 ft 134 kts 61°
2026-05-03 21:54 40.87693 29.28175 582 ft 132 kts 59°
2026-05-03 21:54 40.88124 29.29265 479 ft 136 kts 61°
2026-05-03 21:55 40.88530 29.30383 327 ft 133 kts 59°
2026-05-03 21:55 40.88899 29.31382 300 ft 100 kts 64°
2026-05-03 21:55 40.89072 29.31839 301 ft 18 kts 66°
2026-05-03 21:55 40.89123 29.31981 303 ft 26 kts 63°
2026-05-03 21:56 40.89207 29.32204 303 ft 23 kts 62°
2026-05-03 21:56 40.89247 29.32288 302 ft 13 kts 52°
2026-05-03 21:56 40.89327 29.32391 303 ft 17 kts 38°
2026-05-03 21:56 40.89431 29.32484 303 ft 19 kts 33°
2026-05-03 21:57 40.89496 29.32436 303 ft 11 kts 256°
2026-05-03 21:57 40.89523 29.32365 303 ft 9 kts 330°
2026-05-03 21:57 40.89588 29.32339 304 ft 11 kts 347°
2026-05-03 21:57 40.89652 29.32311 304 ft 6 kts 343°
2026-05-03 21:58 40.89681 29.32332 304 ft 2 kts 62°
2026-05-03 21:58 40.89688 29.32361 302 ft 4 kts 73°
2026-05-03 21:58 40.89700 29.32399 303 ft 5 kts 64°
2026-05-03 21:58 40.89707 29.32417 303 ft 0 kts 65°